Change the Weather History Date:

Thursday, November 15, 2012

  Actual Average Record
Temperature  
Mean Temperature 60 °F -  
Max Temperature 73 °F 69 °F 77 °F (2013)
Min Temperature 46 °F 45 °F 41 °F (1999)
Degree Days  
Heating Degree Days 6    
Growing Degree Days 10 (Base 50)    
Moisture  
Dew Point 44 °F    
Average Humidity 58    
Maximum Humidity 93    
Minimum Humidity 24    
Precipitation  
Precipitation 0.00 in - - ()
Sea Level Pressure  
Sea Level Pressure 30.27 in    
Wind  
Wind Speed 5 mph ()    
Max Wind Speed 18 mph    
Max Gust Speed -    
Visibility 10.2 miles    
Events      
Averages and records for this station are not official NWS values.
T = Trace of Precipitation, MM = Missing Value Source: Averaged Metar Reports

Daily Weather History Graph

Daily Weather History Graph

Search for Another Location

Airport or City:

Trip Planner

Search our weather history database for the weather conditions in past years. The results will help you decide how hot, cold, wet, or windy it might be!

Date:

Astronomy

Nov. 15, 2012 Rise Set
Actual Time 6:41 AM CST 5:54 PM CST
Civil Twilight 6:18 AM CST 6:17 PM CST
Nautical Twilight 5:51 AM CST 6:44 PM CST
Astronomical Twilight 5:25 AM CST 7:10 PM CST
Moon 8:29 AM CST (11/15) 7:56 PM CST (11/15)
Length of Visible Light 11h 59m
Length of Day
11h 13m
Waxing Crescent, 5% of the Moon is Illuminated
Nov 15
Waxing Crescent
Nov 20
First Quarter
Nov 28
Full
Dec 6
Last Quarter
Dec 13
New

Hourly Weather History & Observations

Time (CST) Temp. Windchill Dew Point Humidity Pressure Visibility Wind Dir Wind Speed Gust Speed Precip Events Conditions
5:58 AM 47 °F - 46 °F 92% 30.01 in 3 mi Calm Calm - -  
6:35 AM 42.8 °F 38.0 °F 41.0 °F 93% 30.39 in 10.0 mi North 8.1 mph - N/A   Clear
6:55 AM 44.6 °F 42.2 °F 41.0 °F 87% 30.39 in 10.0 mi NW 4.6 mph - N/A   Clear
7:50 AM 50.0 °F - 42.8 °F 76% 30.41 in 10.0 mi NW 8.1 mph - N/A   Clear
8:43 AM 57.2 °F - 44.6 °F 63% 30.42 in 10.0 mi NNW 10.4 mph - N/A   Clear
8:50 AM 55 °F - 47 °F 65% 30.11 in 12 mi North 2.2 mph - -  
9:42 AM 62.6 °F - 44.6 °F 52% 30.42 in 12.0 mi NW 17.3 mph - N/A   Clear
10:42 AM 66.2 °F - 44.6 °F 46% 30.41 in 12.0 mi Calm Calm - N/A   Clear
11:43 AM 68.0 °F - 42.8 °F 40% 30.40 in 12.0 mi NE 5.8 mph - N/A   Partly Cloudy
11:50 AM 68 °F - 41 °F 26% 30.05 in 12 mi North 2.2 mph - -   Scattered Clouds
12:45 PM 69.8 °F - 42.8 °F 38% 30.36 in 12.0 mi NNW 5.8 mph - N/A   Scattered Clouds
1:40 PM 69.8 °F - 39.2 °F 33% 30.33 in 12.0 mi NE 3.5 mph - N/A   Mostly Cloudy
2:40 PM 69 °F - 40 °F 24% 29.90 in 12 mi ESE 2.2 mph - -   Partly Cloudy
2:40 PM 69.8 °F - 44.6 °F 40% 30.31 in 12.0 mi SSW 18.4 mph - N/A   Mostly Cloudy
3:50 PM 68.0 °F - 42.8 °F 40% 30.30 in 12.0 mi SSW 10.4 mph - N/A   Mostly Cloudy
4:41 PM 68.0 °F - 44.6 °F 43% 30.31 in 10.0 mi South 3.5 mph - N/A   Mostly Cloudy
5:40 PM 64 °F - 43 °F 35% 29.85 in 12 mi ESE 2.2 mph - -   Mostly Cloudy
5:40 PM 64.4 °F - 44.6 °F 49% 30.33 in 12.0 mi SSE 6.9 mph - N/A   Mostly Cloudy
6:47 PM 60.8 °F - 46.4 °F 59% 30.37 in 12.0 mi SE 3.5 mph - N/A   Mostly Cloudy
7:41 PM 59.0 °F - 48.2 °F 67% 30.39 in 10.0 mi SSE 9.2 mph - N/A   Mostly Cloudy
8:44 PM 57.2 °F - 46.4 °F 67% 30.40 in 10.0 mi SSW 4.6 mph - N/A   Mostly Cloudy
8:55 PM 58 °F - 47 °F 57% 29.88 in 3 mi ENE 2.2 mph - -   Mostly Cloudy
9:40 PM 51.8 °F - 46.4 °F 82% 30.41 in 10.0 mi North 4.6 mph - N/A   Scattered Clouds
10:41 PM 51.8 °F - 44.6 °F 76% 30.40 in 10.0 mi North 4.6 mph - N/A   Partly Cloudy
11:40 PM 48.2 °F - 44.6 °F 87% 30.40 in 10.0 mi NNW 5.8 mph - N/A   Partly Cloudy
11:50 PM 55 °F - 47 °F 68% 29.96 in 3 mi Calm Calm - -   Partly Cloudy